Theta_e
305 305 305 305 305 305 305 305 305 304 304 306 308 308 308 307 307 308 308 306 307 308 306 306 307 306 306 306 305 307 307 306 306 306 307 308 308 308 308 309 311 312 312 313 313 313 314 315 317 320 321 320 317 316 317 318 320 324 325 325 328 329 327 321 317 321 325 327 327 327 327 326 323 323 325 326 323 320 317 317 317 314 311 310 310 309 315
306 305 305 305 305 305 305 305 305 304 304 305 307 309 307 306 307 307 307 307 308 307 306 306 306 306 306 306 306 306 306 306 307 306 306 308 308 308 308 309 311 311 310 312 312 312 315 316 316 318 320 318 316 316 316 318 320 321 322 325 325 323 324 322 317 317 319 319 321 322 323 324 322 323 325 326 325 326 324 321 320 316 312 312 311 309 314
305 306 305 304 304 305 305 305 305 305 304 304 306 309 307 306 307 307 306 307 307 306 306 306 306 306 307 306 306 306 306 306 307 306 306 307 308 308 309 309 309 309 309 311 312 312 313 315 316 317 318 317 316 315 315 317 318 318 321 324 323 323 326 324 318 316 314 314 316 316 317 321 322 324 326 326 326 325 322 318 315 314 315 315 312 310 317
304 305 304 304 304 304 304 305 305 305 305 304 306 309 308 306 306 306 306 306 307 306 306 306 306 307 307 307 306 306 306 306 307 307 306 307 307 308 309 309 308 309 310 311 312 313 313 314 315 315 316 317 317 316 316 316 316 320 324 324 322 325 328 326 323 319 317 319 323 326 324 320 317 320 324 324 325 326 323 316 312 314 316 314 315 317 320
303 304 303 303 304 304 304 304 305 306 305 305 307 310 308 306 306 305 305 306 306 306 306 306 306 307 307 307 307 306 306 306 306 307 307 307 307 308 308 308 307 308 310 310 311 313 314 314 316 316 315 316 317 315 316 316 317 321 323 321 322 326 325 327 328 323 325 330 330 329 327 322 318 319 321 323 326 326 321 315 316 320 315 311 320 327 320
302 303 302 302 302 302 303 303 304 305 306 305 307 309 307 306 306 305 305 305 305 305 305 305 305 306 307 307 306 306 306 306 306 307 307 307 308 308 308 308 307 308 309 309 310 312 314 315 315 315 315 315 316 316 316 316 317 319 319 318 323 325 322 326 328 325 329 333 328 327 328 326 325 323 322 323 325 323 319 317 322 325 316 313 324 330 324
302 302 302 302 302 301 302 303 303 305 305 306 307 308 307 307 306 306 305 305 305 304 304 305 305 306 307 307 307 307 306 306 306 306 306 307 308 308 308 308 307 307 308 309 310 311 314 315 313 313 313 313 315 317 317 317 316 317 317 318 321 323 323 328 327 324 328 330 327 328 327 325 326 326 325 325 325 324 322 322 326 327 322 323 330 330 328
302 302 302 302 302 301 301 302 303 305 305 307 308 307 307 307 306 306 306 305 305 305 304 304 305 305 306 307 307 307 306 306 306 306 306 307 308 308 308 308 307 306 308 309 310 310 311 312 311 311 312 312 313 315 316 315 315 315 317 319 320 321 322 327 326 323 323 325 326 326 326 325 324 324 327 327 325 325 324 324 326 326 324 328 331 328 329
301 302 302 302 302 301 300 301 304 305 306 306 308 307 307 307 306 306 306 306 306 305 304 305 305 305 306 307 307 306 306 306 306 306 306 306 308 308 307 308 307 307 308 310 309 309 309 309 309 309 310 310 311 312 313 312 313 315 317 318 320 320 321 323 324 321 320 323 324 324 325 325 321 320 325 326 323 323 323 325 327 324 323 325 323 321 328
301 301 302 301 301 301 300 301 304 305 306 306 307 307 307 307 306 306 306 306 307 305 305 304 304 304 305 305 306 306 306 306 306 306 306 306 307 307 307 307 307 307 308 309 309 308 308 308 307 307 308 309 309 310 311 312 312 314 315 316 318 320 320 320 321 320 319 321 322 322 322 320 318 319 324 326 326 326 325 327 329 328 328 325 322 323 332
301 301 301 301 301 302 302 303 305 306 305 306 307 307 307 306 306 306 306 306 307 305 305 305 304 304 305 305 305 305 305 306 306 307 307 306 306 306 306 307 308 308 308 308 308 307 307 306 307 307 308 308 309 310 311 311 312 313 314 315 317 319 319 320 321 319 317 320 321 320 318 317 319 324 327 327 327 327 326 326 328 329 329 328 328 331 334
301 301 301 302 303 304 305 305 306 306 306 306 306 306 307 306 307 306 305 306 308 306 305 305 304 304 305 304 304 305 305 305 306 306 307 306 306 306 306 307 308 309 308 307 307 307 307 307 307 308 308 308 309 310 310 311 311 312 312 313 315 317 319 320 320 318 317 318 319 319 317 319 323 326 328 327 326 326 326 328 328 327 327 328 329 330 331
300 301 302 304 305 305 306 306 306 306 306 306 306 306 306 307 307 307 305 305 307 307 306 306 305 304 305 304 305 305 305 305 306 306 306 306 306 306 306 307 307 308 307 306 306 307 308 309 309 309 309 309 309 310 310 310 310 311 311 312 314 316 318 319 319 319 319 319 318 319 321 323 324 328 329 329 329 328 325 324 325 327 327 328 328 328 329
301 303 304 305 306 306 306 306 306 306 306 306 306 306 306 306 307 307 305 304 306 307 306 306 306 304 304 305 304 305 305 305 306 306 306 306 306 306 306 307 307 307 307 307 308 309 309 310 311 312 311 310 311 310 310 310 310 311 311 311 313 314 316 318 318 319 320 318 316 318 321 322 324 328 330 331 330 329 326 323 325 330 329 330 333 335 335
302 304 305 306 306 306 306 306 307 307 307 307 307 306 306 306 307 307 306 304 304 306 307 307 306 305 305 305 305 305 306 306 306 307 307 307 306 306 306 307 308 308 306 307 308 309 309 310 312 312 312 311 312 311 311 310 310 310 311 311 312 313 315 317 318 318 318 317 316 318 318 318 321 325 330 332 330 331 332 327 327 332 332 334 340 340 339
304 305 306 306 306 306 307 307 307 307 307 308 308 307 307 306 306 307 306 305 303 305 308 307 306 305 305 305 305 306 307 306 307 307 307 307 307 306 306 307 308 307 307 308 309 309 310 311 312 312 312 312 312 313 313 312 311 310 311 311 312 312 313 316 317 317 317 316 316 317 316 318 324 328 330 331 329 332 334 326 325 334 339 338 339 339 339
305 306 306 307 307 307 307 308 308 308 308 308 309 308 308 307 306 306 307 305 304 305 306 305 305 306 306 305 305 306 307 306 307 307 307 308 307 306 306 307 307 307 307 308 309 310 310 310 311 312 311 311 312 313 313 313 312 312 311 310 311 312 312 314 315 316 317 317 316 317 317 320 327 329 328 328 329 332 328 321 325 340 342 339 340 340 341
306 306 307 307 307 307 307 308 308 308 308 309 309 309 309 308 307 306 307 306 304 304 305 305 305 306 306 305 305 306 306 306 306 307 307 307 307 307 307 307 306 307 309 309 309 310 310 310 310 311 311 312 312 312 312 314 314 314 313 311 312 313 313 313 313 315 316 316 316 316 317 321 326 328 330 329 327 327 325 324 333 344 341 338 341 340 340
306 306 307 307 307 307 308 308 308 308 308 309 309 309 309 309 308 307 307 307 305 304 305 306 306 306 306 306 305 305 306 306 306 306 307 307 308 307 306 307 307 307 308 309 309 309 309 310 310 310 311 312 312 312 313 314 315 315 315 314 313 313 313 313 313 313 314 316 316 315 317 323 325 325 326 326 324 326 330 334 340 342 339 338 340 339 341
306 306 307 307 307 307 308 308 308 308 308 308 308 309 309 309 308 307 306 307 306 305 305 305 305 306 306 306 306 306 306 306 306 306 306 307 308 307 306 308 309 308 308 310 310 309 309 309 310 310 310 311 312 312 312 313 313 314 315 315 315 315 315 314 313 313 313 314 316 316 318 324 325 322 324 329 330 331 335 338 338 337 336 337 338 340 343
306 307 307 307 307 307 308 308 308 308 308 308 308 308 309 309 309 307 306 306 306 306 306 305 305 306 306 306 306 306 306 306 306 306 306 306 307 306 307 308 309 308 308 310 309 310 310 308 309 310 310 311 312 311 312 313 313 313 314 314 316 317 317 316 315 315 313 313 315 318 321 324 324 323 326 330 331 331 334 336 336 337 337 337 339 340 342
306 307 307 307 308 308 308 308 308 308 308 308 308 308 309 309 309 308 307 307 306 306 307 306 306 306 306 306 307 306 306 306 306 306 306 306 306 306 307 308 308 308 308 308 308 310 311 310 310 310 310 310 310 311 312 313 313 313 313 314 315 317 318 319 319 319 318 316 317 320 322 322 322 322 324 326 326 327 330 333 335 337 337 338 339 340 340
306 307 307 307 307 308 308 308 308 308 308 308 308 308 309 309 309 308 307 307 307 307 307 306 306 306 306 307 307 307 307 307 307 307 306 306 306 306 307 307 308 308 309 309 309 309 310 310 310 310 310 310 311 312 313 311 311 311 312 313 314 316 317 317 318 318 318 318 319 320 321 321 321 321 322 322 323 324 327 329 332 334 334 335 337 339 339
306 307 307 307 308 308 308 308 308 308 308 308 308 308 308 308 309 309 307 307 307 307 307 307 306 307 307 307 307 307 307 307 307 307 306 306 306 307 307 307 307 308 309 310 310 309 310 310 310 310 311 311 311 311 311 311 311 312 312 311 312 314 314 315 316 316 317 318 319 319 320 320 320 320 320 320 321 324 326 327 329 330 331 333 336 337 338
306 307 307 307 308 308 308 308 308 308 308 308 308 308 308 309 309 309 308 308 308 308 308 307 307 308 308 307 307 307 307 307 307 307 306 306 306 306 307 307 307 308 309 310 310 309 310 310 310 310 311 311 311 311 311 311 312 313 313 312 312 313 314 314 315 316 316 317 318 318 318 318 318 318 319 319 320 324 325 325 325 327 329 330 333 335 337
306 307 307 308 308 308 308 308 308 308 308 308 308 308 309 310 310 308 308 309 309 308 308 308 308 308 308 307 307 307 306 306 306 306 306 307 307 307 307 308 307 308 308 309 309 309 310 310 310 310 310 311 311 311 311 312 312 312 313 313 312 313 314 314 314 315 315 315 316 316 316 316 316 317 317 318 320 323 323 323 323 325 327 329 330 333 336
307 307 308 308 308 308 308 308 308 308 308 308 309 309 310 311 310 309 309 309 309 309 309 309 308 308 308 308 307 307 307 306 307 307 307 307 307 307 308 308 307 307 308 308 308 309 309 310 310 310 310 310 311 310 311 311 312 312 312 313 312 313 313 313 314 314 314 314 315 316 316 316 316 317 318 319 320 321 321 322 323 324 325 327 329 330 334
307 307 308 308 308 308 308 308 308 308 308 308 309 309 310 311 311 310 309 309 309 309 309 309 308 308 309 309 308 308 307 307 307 307 307 307 307 307 308 307 307 307 307 307 308 308 308 309 310 309 309 309 310 310 311 312 312 312 312 312 312 312 313 313 313 313 314 314 315 315 316 317 317 317 318 319 318 319 319 321 322 322 324 326 327 329 333
307 308 308 307 307 308 308 308 308 308 308 309 310 310 311 311 311 310 310 309 309 309 309 309 309 309 309 310 309 308 308 308 308 308 308 308 308 308 308 308 307 307 307 307 307 308 307 308 308 308 308 308 309 310 311 311 312 312 312 313 313 312 312 313 313 314 314 315 314 315 315 316 316 316 317 317 318 318 318 319 320 321 322 324 326 328 331
307 308 308 307 307 308 308 309 309 309 309 311 311 312 312 312 311 310 310 310 309 309 309 309 309 309 309 309 309 309 309 309 308 308 308 308 308 308 309 308 307 307 307 307 308 308 308 308 308 308 308 308 308 309 310 310 310 311 312 313 314 313 313 313 313 314 314 314 314 315 315 315 315 316 316 316 317 317 318 318 319 319 320 322 325 327 328
307 307 307 308 308 309 310 310 310 310 311 312 313 313 313 313 311 310 309 309 309 309 309 309 309 309 309 310 310 310 310 310 309 309 309 309 308 309 309 308 308 308 309 308 308 308 308 308 308 309 308 308 309 310 310 310 311 312 312 313 313 313 313 314 314 314 314 314 314 314 314 314 315 314 315 316 316 317 317 318 319 319 320 321 323 324 326
307 307 308 308 310 310 311 310 311 311 312 313 313 312 311 311 310 308 308 309 310 309 309 309 309 309 310 311 310 309 310 310 310 310 309 309 309 309 309 309 308 308 309 309 309 309 309 309 309 309 309 309 310 311 311 311 312 312 313 313 313 313 313 313 313 313 313 313 314 314 314 315 315 315 315 315 316 317 317 318 318 319 320 322 323 324 327
307 308 308 309 310 311 311 310 311 312 312 312 311 311 310 309 308 307 308 309 309 309 309 309 310 311 311 310 310 311 312 312 312 312 312 311 310 310 310 309 309 309 309 310 310 310 310 310 311 311 311 311 311 311 311 311 311 311 311 312 312 312 312 313 313 313 314 314 314 314 315 315 315 315 316 316 316 317 317 317 318 319 319 321 323 326 329
308 309 310 310 311 311 311 312 312 312 312 313 313 312 311 309 308 307 308 309 309 309 309 308 309 310 311 310 311 312 311 311 312 313 315 315 313 312 312 312 312 312 311 311 311 311 311 311 312 312 312 312 311 311 312 312 312 311 312 312 312 312 312 313 313 313 314 314 314 314 314 315 315 315 316 316 317 317 317 317 318 320 320 321 323 327 329
310 310 310 311 312 313 313 313 314 314 314 314 314 312 310 309 308 307 308 309 309 309 309 309 309 310 310 311 313 312 310 311 312 313 314 315 314 314 314 314 313 312 311 311 311 311 311 311 311 311 311 311 311 312 313 313 312 312 311 311 311 312 313 314 314 314 315 315 315 315 315 315 316 316 316 316 316 317 317 317 317 320 323 325 326 328 329
311 311 311 311 312 313 315 315 315 315 315 315 313 310 308 308 308 307 307 308 308 308 309 309 309 309 310 311 312 311 310 312 313 313 314 315 315 315 315 314 312 312 311 311 310 310 310 310 311 310 310 311 312 313 312 311 310 310 310 311 312 313 314 314 314 315 315 315 316 316 316 316 316 317 317 317 317 317 318 318 318 320 324 328 329 330 329
312 313 312 312 313 316 317 317 315 314 313 312 310 308 308 308 308 308 307 307 307 307 308 308 309 309 310 310 311 311 312 314 314 314 315 315 315 315 315 314 313 313 312 311 310 310 310 310 310 310 311 311 311 311 311 311 311 313 314 316 317 317 317 316 316 316 316 317 317 317 317 317 317 318 318 318 318 318 319 319 319 322 326 329 329 329 329
314 314 314 316 318 318 318 317 314 312 311 310 309 310 310 310 310 310 309 308 309 308 308 307 308 309 309 310 312 312 313 314 314 315 316 316 315 316 315 314 314 314 313 312 312 312 311 311 310 310 311 310 309 311 313 314 315 316 317 318 320 321 320 318 317 317 318 318 317 317 318 318 318 319 319 319 318 318 320 320 321 324 328 329 329 329 329
317 317 319 320 318 316 317 316 313 311 312 311 311 313 314 314 314 315 314 312 311 310 309 309 310 310 310 312 314 313 312 313 315 317 317 316 316 316 316 315 315 314 314 313 313 313 312 311 310 310 310 310 310 313 315 316 316 317 317 318 321 322 322 321 320 320 319 319 319 320 320 320 320 320 319 319 320 320 321 322 323 326 328 329 329 328 328
322 322 321 319 318 317 316 314 312 311 313 314 315 317 318 318 318 319 318 317 316 316 314 314 314 312 310 311 314 314 313 314 316 317 318 317 315 316 317 316 314 314 314 315 315 314 313 312 312 311 311 312 313 314 315 315 316 316 316 317 319 320 321 321 322 323 322 322 321 321 321 321 321 320 320 321 322 323 323 324 325 326 328 329 330 329 328
321 321 319 318 318 317 316 315 314 314 317 318 318 318 319 319 319 319 319 320 321 320 318 318 319 317 314 313 314 316 316 315 314 316 318 318 316 316 317 317 315 315 315 315 315 314 313 312 312 312 312 313 315 315 315 315 315 315 315 316 318 318 319 319 320 322 323 323 323 323 322 322 322 322 323 323 325 326 326 326 326 327 328 329 329 329 330
316 317 317 317 318 318 317 318 318 318 318 317 318 318 318 318 319 320 319 319 320 320 320 320 322 322 320 317 317 318 318 317 316 317 319 319 317 316 317 317 315 315 315 315 314 313 312 312 312 312 312 314 315 315 315 315 315 315 315 315 316 317 317 317 318 319 319 320 321 322 323 323 324 324 324 325 325 325 326 327 327 328 328 329 329 330 331
317 318 318 319 321 320 319 318 317 318 317 317 318 320 319 317 319 319 318 318 319 321 320 321 322 322 321 320 320 320 320 318 318 320 321 320 318 318 317 316 315 315 315 314 313 311 311 311 312 313 314 315 316 315 315 315 315 315 315 315 316 316 316 316 316 317 317 317 318 319 319 320 321 321 322 323 324 324 325 326 326 327 328 329 329 330 329
322 321 320 320 318 317 318 317 316 318 318 317 318 320 320 319 320 319 318 319 321 321 319 320 321 321 321 321 322 322 321 320 319 320 320 317 317 317 317 315 314 314 314 313 311 310 310 311 312 314 315 316 316 316 316 316 315 315 315 315 315 315 315 315 315 315 316 316 317 317 317 317 318 318 319 320 321 321 322 322 323 324 325 327 327 327 326
321 317 317 317 317 316 319 318 317 317 318 317 316 317 318 319 320 319 318 319 321 319 316 317 320 321 320 320 320 320 320 320 320 319 318 316 315 315 315 314 312 311 311 310 310 309 310 311 313 314 314 314 316 316 316 316 316 316 315 314 314 315 315 315 315 315 315 315 315 315 315 315 316 316 317 317 317 318 318 319 320 320 321 323 324 323 323
317 315 316 317 317 316 317 317 316 315 316 316 315 315 316 316 318 318 316 317 320 319 315 315 318 320 319 318 318 317 317 317 317 317 317 316 315 313 312 312 311 311 310 310 310 310 310 312 314 314 312 312 314 315 316 316 316 316 315 314 314 314 314 314 314 314 314 314 314 314 314 314 314 315 315 315 315 316 316 316 317 317 317 318 319 320 319
316 316 315 315 315 315 314 315 315 314 315 315 314 315 315 315 316 316 316 316 319 320 318 316 317 318 317 316 316 316 315 315 316 315 314 314 314 312 311 311 311 311 311 311 312 312 312 312 313 313 312 311 312 313 314 315 316 316 315 315 314 314 314 314 314 314 314 314 313 313 313 313 314 314 314 314 314 314 314 314 314 314 315 315 315 315 315
316 316 315 314 314 314 314 314 314 314 314 314 314 314 314 315 315 315 316 316 317 318 318 318 318 318 317 316 316 316 315 315 315 314 313 313 313 312 312 312 312 312 312 312 313 314 313 312 311 311 311 311 311 312 312 313 314 315 315 315 314 314 314 313 313 314 314 314 313 313 313 313 313 313 313 313 313 313 313 312 312 312 313 313 313 313 313
316 315 315 314 314 314 314 314 314 313 313 313 314 313 313 314 314 315 315 316 317 317 317 316 317 317 317 316 315 315 315 315 314 314 313 313 313 312 312 313 313 314 314 314 314 314 313 311 310 311 311 311 311 311 311 311 312 313 314 314 315 315 315 314 314 314 314 314 314 313 313 313 313 313 313 313 312 312 311 311 311 311 311 312 312 312 312
315 315 315 315 315 314 314 314 313 313 312 312 313 313 313 314 314 314 315 315 316 316 316 315 315 315 315 314 314 314 314 314 314 314 314 315 313 312 313 313 313 314 315 315 315 314 312 310 310 311 311 311 311 311 311 311 311 311 312 312 313 314 314 314 314 314 313 313 313 313 313 313 313 313 313 313 312 311 311 311 310 310 310 310 311 311 311
315 314 314 314 314 313 314 313 313 312 312 312 312 312 313 313 313 314 315 315 315 314 315 315 314 313 313 314 314 314 314 313 313 314 315 315 314 314 314 314 314 313 313 313 313 312 311 311 311 311 310 310 311 311 310 311 311 311 311 311 312 312 313 313 313 313 313 312 312 312 313 313 313 312 312 312 311 311 311 311 310 310 310 309 309 310 310
314 314 314 315 314 313 314 313 313 312 312 312 312 312 312 312 312 313 314 314 314 314 313 313 313 313 313 314 314 314 314 314 314 314 315 315 314 314 314 314 313 312 311 310 310 310 310 311 312 312 311 310 310 310 310 310 311 310 310 311 311 311 312 312 312 312 312 312 312 312 312 312 312 311 311 311 311 311 311 310 310 309 309 309 308 309 308
Wind_Speed
20 20 21 22 24 25 26 28 28 30 31 27 24 19 10 5 7 8 11 17 18 11 3 4 5 4 7 9 8 8 8 9 11 11 11 9 8 7 8 11 12 12 13 15 15 13 11 12 14 13 6 5 7 9 11 12 9 5 6 11 10 3 4 9 9 10 13 16 19 19 21 21 18 16 16 14 14 14 11 8 7 8 10 9 6 6 4
19 20 21 21 23 24 25 26 27 28 28 25 21 14 6 6 7 5 10 16 14 8 5 5 5 6 8 10 9 8 7 8 10 12 11 9 8 9 9 9 10 12 15 15 16 15 11 12 13 12 7 4 7 7 10 11 9 3 3 3 3 4 9 10 8 9 12 13 15 16 18 18 13 14 18 18 19 18 14 10 7 7 10 11 9 7 4
19 20 20 20 22 23 24 25 25 25 26 25 20 11 7 8 6 3 9 13 9 5 5 6 7 8 9 10 10 8 6 6 8 11 11 7 8 10 8 9 11 12 14 14 15 16 13 11 10 10 8 4 4 5 7 10 8 8 11 11 6 4 9 11 10 12 13 11 11 11 14 15 11 15 22 23 23 22 15 10 8 7 9 10 9 6 6
18 19 19 20 20 21 22 23 23 23 24 25 20 13 9 7 6 6 8 7 5 3 5 6 7 8 9 9 9 9 9 7 6 8 7 4 7 9 6 9 12 11 12 14 13 15 16 14 11 9 9 8 3 3 6 7 7 11 16 12 7 5 8 12 15 15 8 2 3 4 8 15 16 20 24 24 25 23 16 11 10 8 7 8 9 6 8
18 19 19 20 20 21 21 22 22 22 22 23 19 13 9 7 6 7 7 5 5 5 5 7 7 9 9 7 7 10 10 8 5 5 5 5 7 7 3 5 10 11 11 13 12 14 16 14 11 10 9 11 8 4 6 4 6 12 13 6 4 6 8 13 19 19 11 4 8 10 6 14 18 21 23 23 25 25 20 14 12 10 8 8 10 8 6
19 19 19 20 20 21 20 21 22 21 21 21 15 8 6 6 5 6 7 6 7 7 8 9 10 11 10 7 8 10 10 10 8 5 6 6 5 4 4 4 8 11 10 10 10 13 13 9 11 14 12 12 12 6 6 1 5 9 7 2 4 6 9 13 18 19 14 7 7 10 8 9 11 17 24 25 25 26 25 20 16 13 10 8 11 13 10
19 19 20 20 20 21 20 19 20 21 21 20 13 7 6 6 5 6 8 8 9 10 11 12 11 11 10 7 6 7 9 10 9 7 9 6 2 2 7 7 8 10 9 8 8 10 10 8 10 13 12 13 14 6 2 2 7 9 5 3 4 4 6 9 14 17 15 11 8 9 8 6 8 12 18 23 25 25 24 22 20 17 13 10 10 14 14
20 20 21 21 21 22 21 19 18 19 21 18 12 7 6 6 6 6 7 8 9 10 11 10 9 8 8 6 4 4 9 10 8 8 10 9 4 4 8 9 9 9 8 8 9 9 10 9 10 11 12 13 11 7 6 8 10 10 6 3 4 3 2 3 6 11 13 12 10 8 8 7 7 8 10 15 22 25 23 22 20 17 16 14 11 11 12
21 21 22 22 22 22 22 20 17 17 18 15 9 7 7 10 12 10 6 7 9 9 9 8 8 6 6 6 5 7 10 11 10 9 9 8 7 7 9 10 9 9 8 8 9 10 10 11 12 12 12 12 11 8 7 10 11 10 7 5 5 5 3 2 5 8 10 12 12 9 9 8 9 10 9 11 14 16 17 17 16 15 15 15 13 9 7
23 23 24 24 24 24 23 21 17 15 16 12 7 7 8 10 13 11 7 7 9 9 8 8 8 6 5 6 8 10 11 11 11 9 5 5 7 8 10 11 9 8 10 8 7 9 11 13 13 12 12 14 14 11 10 12 11 8 8 7 5 4 4 3 7 7 9 15 14 11 10 9 10 11 12 10 9 10 11 11 10 11 10 9 9 7 5
25 25 25 26 26 25 24 21 18 15 16 15 11 10 11 9 8 6 5 7 8 8 8 8 7 7 8 9 10 11 12 12 11 9 6 8 10 10 11 12 9 7 8 8 8 9 13 15 14 13 15 16 17 15 14 14 13 9 8 8 6 4 5 4 5 6 9 12 10 9 12 11 9 8 10 13 13 12 12 11 11 11 10 8 7 6 5
27 27 27 27 26 25 23 22 20 18 18 19 17 17 16 13 7 4 3 6 8 8 8 9 9 10 12 13 12 11 11 12 11 11 11 11 12 12 12 12 10 7 7 8 10 11 13 14 15 15 16 17 17 16 16 16 14 11 9 9 7 6 5 4 3 6 8 8 8 9 12 11 8 7 9 13 15 16 16 15 15 14 13 13 12 10 8
29 29 29 28 27 26 24 23 22 21 19 19 21 21 19 14 8 4 3 5 7 7 8 11 13 14 13 13 13 12 12 12 12 12 12 12 12 12 10 10 10 9 9 10 12 12 11 11 11 11 13 15 15 16 17 17 16 15 13 11 9 7 6 6 4 5 6 6 8 9 5 4 7 8 4 6 10 15 17 17 16 16 14 13 13 12 10
30 30 29 29 28 26 25 23 22 22 20 20 22 23 20 16 11 5 2 4 7 8 8 10 11 13 13 13 13 12 12 12 11 9 9 9 11 11 9 9 10 10 10 10 9 9 8 7 7 7 7 9 11 12 16 16 16 17 15 12 10 7 6 6 6 6 6 5 8 8 3 2 7 9 5 4 8 11 11 11 12 13 12 8 6 5 4
31 31 29 29 28 26 25 24 23 22 21 21 22 22 21 20 15 9 5 4 6 8 7 7 9 12 13 13 13 11 9 9 8 7 8 7 7 8 8 8 10 11 10 9 7 6 6 6 6 6 4 7 8 9 11 12 13 16 16 13 10 8 7 6 6 7 7 7 9 9 8 7 8 9 8 5 4 5 7 7 8 9 7 4 2 4 4
30 30 29 29 28 26 25 24 23 22 21 20 21 22 22 20 18 15 9 5 4 5 5 5 9 12 12 12 12 10 8 7 7 7 6 5 4 7 8 8 9 11 10 8 6 6 6 6 6 6 4 4 6 6 7 8 10 13 15 14 12 10 8 7 7 8 9 10 9 10 10 8 5 8 11 8 3 3 5 7 7 5 4 3 2 6 6
30 29 29 29 28 27 26 25 24 23 21 20 21 22 22 20 19 18 11 5 6 7 6 7 10 10 8 8 9 8 5 5 6 6 6 5 6 7 7 7 9 10 8 7 6 5 6 7 5 5 4 3 5 5 5 7 8 11 14 14 13 11 7 7 9 10 9 10 10 9 7 2 3 4 7 7 6 5 7 9 6 4 5 3 0 3 2
30 29 29 29 28 27 26 25 24 23 21 20 21 22 21 19 20 21 13 5 7 8 7 10 11 9 7 8 9 8 7 6 6 5 6 7 5 6 7 7 7 5 3 4 5 5 6 6 4 4 3 2 5 5 3 4 5 7 11 12 10 9 7 7 9 10 11 11 10 9 7 2 3 5 6 5 4 6 7 5 2 4 4 3 3 3 3
31 30 30 29 28 27 26 25 24 23 21 20 20 20 17 14 16 21 15 6 6 8 6 8 11 10 9 9 9 9 8 8 6 5 7 5 3 6 9 6 4 3 2 2 5 5 5 5 3 3 4 2 2 5 4 4 3 2 7 10 10 10 8 7 8 9 10 11 9 9 8 1 3 3 6 5 3 5 2 3 5 5 2 4 5 5 5
32 31 30 29 28 27 26 25 24 23 22 20 19 18 16 14 14 18 17 9 6 8 10 12 15 15 14 11 11 10 8 7 6 5 7 6 5 8 8 3 2 3 3 2 4 5 4 3 3 3 4 2 2 3 5 5 4 3 6 7 6 6 7 8 9 8 8 10 11 11 7 3 9 4 2 3 2 0 4 8 7 5 4 6 5 5 6
32 32 31 29 28 27 26 25 24 23 22 20 19 17 16 14 13 16 20 17 9 6 9 12 16 19 18 16 16 15 12 11 9 6 7 7 5 6 6 3 3 4 2 2 4 4 3 4 4 3 3 3 1 2 4 5 5 5 6 6 5 4 5 6 7 6 7 10 9 5 1 5 8 5 2 5 6 4 6 8 7 5 7 7 5 5 6
32 31 30 29 28 27 25 24 23 22 21 20 18 16 13 12 12 14 20 22 16 11 10 10 11 16 20 21 21 20 19 18 16 12 9 7 6 6 6 7 6 4 3 4 5 3 3 4 4 4 4 4 4 3 5 6 4 3 5 6 4 2 2 3 3 3 5 6 5 4 6 5 5 4 6 7 7 6 7 8 8 7 8 9 8 8 9
31 30 30 28 27 26 25 24 23 21 20 19 17 16 14 12 11 14 20 21 17 14 15 15 14 16 20 22 23 22 21 20 19 16 12 8 6 6 6 7 5 3 3 4 4 5 4 4 5 5 5 5 5 5 6 6 5 3 5 6 3 1 1 4 4 5 7 9 9 8 6 4 4 4 6 9 9 8 8 8 8 8 10 10 9 10 11
31 30 29 29 27 26 25 24 22 21 21 20 17 17 16 14 11 13 18 15 9 8 10 13 12 11 13 15 14 15 15 16 16 15 13 11 8 5 4 4 3 3 3 2 3 4 4 4 5 5 5 5 5 6 6 5 4 4 4 6 5 4 5 6 6 6 5 6 8 7 6 6 6 6 7 8 8 8 8 8 8 9 11 12 11 11 11
30 30 29 28 27 26 25 24 23 23 22 20 17 15 14 12 9 12 14 9 5 5 6 7 8 11 14 14 13 12 12 11 11 12 13 14 12 9 6 4 4 5 5 3 3 4 5 5 5 6 6 5 4 5 6 5 4 4 5 6 5 3 3 6 8 8 8 9 10 11 11 11 10 9 9 8 6 7 9 9 9 10 11 12 12 11 10
30 29 28 28 27 26 25 24 24 24 21 17 14 13 12 9 7 13 14 7 3 3 4 6 7 8 9 10 11 11 10 9 10 11 13 14 15 15 13 10 8 8 7 5 5 6 6 6 6 6 6 4 4 6 7 6 7 7 7 7 6 3 4 6 7 8 9 10 12 12 13 13 13 12 11 8 6 7 9 10 11 11 11 11 13 12 10
29 29 28 28 27 26 26 25 24 21 18 14 11 10 10 8 8 13 15 10 4 2 4 5 5 5 8 10 12 12 12 13 13 13 14 15 15 16 15 11 9 8 7 6 6 5 5 6 7 7 6 6 6 7 8 8 9 9 8 8 7 7 8 7 7 8 9 9 10 10 10 9 10 9 8 8 7 7 10 11 11 11 10 10 12 13 11
28 28 28 27 27 27 26 24 20 17 14 10 6 6 6 7 8 11 14 13 8 4 4 5 5 7 9 9 8 9 11 12 12 13 14 14 15 15 14 11 9 7 7 7 6 5 6 7 6 6 6 6 6 7 8 8 9 9 9 9 8 8 9 9 9 9 10 10 10 8 7 8 10 10 10 9 8 9 10 11 10 11 11 10 11 13 12
28 28 28 28 28 27 23 19 16 12 7 3 1 3 3 4 5 8 10 11 9 5 5 6 6 6 6 4 3 5 7 8 10 11 12 12 12 12 11 9 8 7 6 6 6 6 7 7 6 6 6 5 6 7 7 8 8 9 10 10 9 9 10 11 11 12 12 12 11 10 9 11 13 14 13 11 9 10 11 11 11 11 12 11 11 12 12
28 28 28 27 25 21 17 13 9 2 3 5 3 3 2 2 2 4 6 8 8 5 3 4 4 4 6 6 4 3 5 7 9 11 11 11 10 9 9 8 7 6 5 5 5 6 6 6 6 7 7 7 6 6 6 8 9 10 11 12 11 10 11 11 12 13 13 12 11 11 12 13 13 14 14 13 11 12 12 11 11 12 13 13 12 12 12
28 27 26 23 18 13 10 7 3 8 9 5 4 2 0 2 2 1 4 7 7 5 3 3 4 4 4 3 2 3 4 6 7 9 10 10 9 8 9 7 6 5 6 6 6 6 6 6 6 7 7 6 5 5 7 9 10 12 14 15 12 11 11 11 11 12 12 12 13 14 15 16 15 14 14 14 14 14 13 12 12 12 13 14 13 13 13
27 25 22 15 9 7 7 6 8 9 5 1 2 3 3 2 3 1 3 6 6 4 2 3 4 4 2 1 2 5 6 6 6 6 8 8 7 7 8 7 6 6 6 6 5 5 5 6 7 8 7 6 4 5 8 9 10 13 16 15 12 12 12 12 12 13 13 13 14 15 16 17 17 17 16 15 14 14 13 12 11 11 12 14 14 13 14
25 21 14 6 6 9 9 10 10 9 5 3 5 6 3 2 2 2 4 5 3 2 2 3 4 3 2 2 3 5 7 6 4 3 3 4 4 4 5 6 5 5 6 5 4 3 4 5 6 7 7 5 4 5 7 10 14 17 18 17 16 16 17 17 16 16 15 14 14 15 15 16 17 17 18 17 16 16 14 12 10 10 12 13 13 12 11
19 14 5 5 10 12 11 10 9 6 3 3 5 5 3 1 3 5 5 3 1 1 2 2 3 3 4 4 2 3 6 5 3 2 2 0 1 2 3 2 2 2 4 4 3 3 4 4 4 5 5 3 4 5 7 11 16 18 19 20 20 19 19 19 19 18 17 16 15 15 16 17 17 17 18 17 17 16 15 12 11 11 11 12 13 11 9
13 7 3 10 12 12 9 6 3 1 1 3 4 3 1 2 6 7 4 1 1 1 1 1 2 3 4 5 3 3 5 5 4 3 3 1 1 0 1 0 1 2 2 2 2 4 4 2 2 3 3 2 4 5 6 11 18 21 21 22 22 21 19 19 18 17 16 16 15 14 16 18 18 18 19 19 18 17 16 13 11 11 13 12 11 10 9
7 3 7 10 8 5 3 2 4 3 2 4 4 2 3 6 8 6 3 1 2 2 2 1 2 2 3 4 3 3 3 4 3 2 1 1 0 1 1 1 2 2 2 1 2 4 3 1 2 3 2 1 3 6 8 14 23 26 24 23 21 19 19 20 20 19 18 17 17 15 16 19 20 18 18 19 18 17 18 15 12 13 15 13 9 7 8
3 4 7 8 4 3 1 4 5 3 2 2 3 5 7 6 5 4 3 2 1 2 1 1 2 3 2 2 3 3 3 3 2 1 1 1 1 1 1 1 1 0 0 2 3 3 3 2 2 3 3 3 6 10 13 16 19 19 18 17 15 14 16 18 18 19 19 19 19 17 16 18 19 17 17 20 19 18 18 15 13 14 15 12 9 8 8
3 3 5 5 3 1 3 5 4 1 2 3 3 4 4 4 2 1 2 2 1 2 2 1 2 3 2 2 2 3 3 3 3 2 1 1 1 1 1 0 0 1 2 2 2 2 3 3 3 3 4 5 9 13 15 15 14 14 14 14 12 10 11 14 14 15 15 15 16 16 16 17 19 18 18 19 18 17 16 14 13 13 12 10 9 8 9
1 3 5 2 2 4 4 5 3 2 4 4 4 2 2 3 1 1 0 1 1 1 2 2 2 2 2 3 3 2 2 3 3 3 2 2 2 1 1 1 1 1 3 2 0 1 2 3 2 2 4 7 11 15 17 17 16 16 16 16 15 11 5 5 10 14 14 13 14 14 14 15 18 18 16 15 15 15 14 12 12 11 9 8 9 10 10
1 2 1 3 5 3 2 3 1 3 4 4 5 3 1 0 1 3 2 1 1 1 0 1 1 2 4 4 3 1 0 1 3 4 3 2 2 0 1 2 1 1 3 4 2 1 3 4 3 4 7 9 12 15 16 16 17 18 18 18 19 18 14 11 5 3 9 12 13 14 13 13 13 14 13 13 13 12 11 11 11 10 9 8 9 10 11
3 3 4 4 3 1 1 0 2 3 3 2 1 1 3 3 2 2 3 5 4 2 0 1 2 0 3 3 2 1 1 1 2 3 2 2 1 1 2 2 1 1 4 5 4 3 4 4 5 7 10 12 13 14 16 16 18 20 20 20 20 19 18 18 17 12 7 3 0 3 5 8 9 10 10 10 8 7 6 6 7 8 9 10 11 11 12
4 3 2 1 1 2 2 1 1 2 2 3 3 3 4 4 3 3 3 4 4 3 3 3 5 4 1 2 2 1 0 1 2 3 1 2 1 2 3 3 2 3 5 5 5 5 5 5 6 8 11 12 13 14 16 16 17 19 21 22 21 20 21 21 20 19 18 16 13 10 8 7 5 3 2 4 5 5 6 4 1 3 8 12 14 14 13
7 5 1 2 3 2 1 2 2 2 2 3 4 4 5 5 4 4 3 2 2 3 3 4 6 4 0 2 2 0 1 1 2 2 1 2 1 1 3 4 4 4 4 3 4 7 7 6 7 9 10 11 12 13 14 15 16 17 19 21 21 21 22 22 21 21 22 21 18 16 15 13 14 16 18 17 13 12 12 12 9 5 5 11 15 15 12
5 4 2 1 1 2 2 3 3 3 4 4 4 6 7 7 6 6 5 2 3 4 5 5 6 6 4 2 1 1 2 2 2 1 2 4 3 3 4 5 4 3 2 3 5 7 7 6 7 8 9 11 11 11 11 12 13 14 16 19 21 22 23 22 21 21 21 21 19 18 16 15 16 21 25 25 20 17 16 15 14 14 18 21 20 19 17
3 3 3 2 3 3 2 2 2 4 5 5 5 6 7 7 7 7 6 3 3 4 6 6 6 6 6 4 3 3 3 2 1 1 3 4 5 5 5 5 4 4 4 6 7 8 8 8 8 10 11 12 12 11 11 11 12 13 14 17 20 21 22 22 21 20 18 18 17 18 18 17 16 17 19 21 23 23 22 18 16 19 25 24 20 18 21
3 4 3 2 3 3 3 3 4 4 5 6 6 7 7 7 6 6 6 5 4 4 6 5 5 5 5 4 3 3 4 4 3 3 4 4 5 6 5 4 5 5 6 8 8 8 9 9 8 9 12 13 13 12 12 11 11 12 13 15 17 19 19 19 20 19 17 17 18 18 18 17 16 16 17 20 25 28 27 24 23 26 29 25 19 18 23
3 3 2 2 3 4 5 5 5 6 6 6 7 8 8 7 6 6 6 7 6 4 3 2 2 2 3 3 3 3 3 4 4 4 4 4 4 4 3 4 5 5 5 7 7 7 7 8 9 9 11 12 13 13 13 12 13 13 13 12 14 16 17 18 18 17 17 18 18 17 17 18 19 19 19 21 25 28 29 29 30 32 31 28 24 24 27
2 3 3 3 3 5 6 6 6 6 7 7 7 8 7 7 7 8 7 7 6 5 4 4 3 2 2 2 3 4 4 4 4 4 4 3 4 3 3 4 5 4 4 6 6 6 7 8 9 10 11 12 13 13 13 13 15 16 15 13 13 14 15 17 17 17 18 18 17 15 16 18 19 19 19 19 21 25 29 31 32 32 32 30 28 28 29
3 3 3 4 4 5 6 6 6 6 7 8 8 8 8 8 8 8 8 8 7 6 5 4 4 4 3 3 3 4 5 4 4 4 4 4 5 4 4 5 5 5 4 4 4 5 6 7 8 11 12 13 13 13 13 13 14 15 15 15 15 13 13 14 16 18 20 19 16 16 18 19 19 19 18 16 16 21 27 30 30 30 30 29 27 26 26
5 4 5 5 5 5 6 6 7 8 8 8 8 8 9 9 9 9 9 8 7 6 4 3 4 4 4 4 3 4 5 4 4 4 5 5 5 5 5 5 5 5 5 4 4 5 6 7 8 9 11 12 12 13 13 13 13 13 14 16 17 17 17 17 18 19 20 20 19 20 21 20 19 17 16 15 17 22 26 27 27 27 28 27 26 24 23
3 4 5 7 7 7 7 7 7 8 8 8 9 9 9 9 9 10 10 9 7 6 5 5 4 4 5 5 4 4 3 3 4 5 5 4 4 4 4 5 5 4 4 5 5 5 5 6 7 8 9 10 11 12 12 13 13 14 15 17 18 19 19 20 20 20 20 21 22 22 20 18 18 18 18 20 22 22 20 20 22 23 23 23 23 23 22
3 4 6 6 7 7 7 7 7 7 8 8 8 8 9 8 9 11 12 9 7 6 7 6 5 5 5 5 4 3 3 3 5 6 5 4 4 4 4 5 5 5 5 5 5 5 5 6 7 8 8 9 10 11 11 12 13 14 16 17 17 17 18 18 19 19 19 19 20 20 19 18 19 21 22 22 20 16 13 14 17 19 19 19 19 20 20
Wind_Direction
342 341 341 342 343 344 349 354 356 356 357 355 346 331 319 333 328 330 356 348 329 317 330 356 337 343 350 330 321 330 323 324 332 333 338 337 328 325 305 299 306 306 312 312 298 287 282 276 266 264 291 49 46 2 343 329 314 277 237 214 202 210 266 251 233 201 202 205 197 198 208 208 202 204 211 208 205 205 206 209 199 196 209 209 217 233 166
339 338 338 340 340 341 346 352 355 357 359 352 339 331 334 326 306 322 3 348 328 321 345 345 335 342 337 326 324 327 322 331 338 334 341 349 339 327 317 318 321 312 310 308 300 296 287 274 272 277 297 30 46 1 339 335 330 340 342 294 214 213 222 225 232 212 196 196 194 192 202 212 208 201 205 211 210 206 206 212 208 203 206 199 201 220 179
336 335 336 337 337 338 341 347 353 355 356 352 339 324 324 320 306 342 357 346 335 338 349 334 328 336 331 325 326 323 320 338 344 334 334 345 341 327 323 329 323 310 307 303 296 289 275 272 296 313 305 306 42 16 328 329 345 2 345 325 309 255 219 211 220 215 197 191 197 193 195 203 210 204 202 207 211 208 203 207 212 207 201 199 208 204 136
336 334 336 338 336 337 337 340 347 351 353 352 338 317 315 323 325 343 348 342 332 332 342 329 324 333 332 326 325 321 318 327 343 338 325 336 343 330 332 337 325 318 321 316 303 290 280 274 276 288 294 296 352 25 313 321 353 341 323 309 295 268 230 221 227 227 217 210 278 267 210 201 204 206 202 201 208 210 206 207 212 204 193 202 218 202 139
336 333 335 338 336 336 336 335 339 344 349 350 336 313 315 328 331 342 343 330 319 327 341 333 326 327 323 321 322 317 315 319 333 343 324 335 347 327 323 350 335 335 334 321 310 302 297 294 293 302 314 315 321 306 276 315 356 324 310 299 282 268 235 225 231 237 247 302 334 328 268 212 209 209 204 200 205 208 209 212 207 196 198 202 204 214 180
333 332 333 336 336 336 335 332 333 337 342 344 336 316 328 335 327 339 337 318 315 323 324 320 315 310 308 311 310 307 313 319 324 331 318 333 13 338 312 346 338 332 330 315 307 306 307 322 346 352 349 327 313 274 217 195 359 323 308 305 300 270 234 225 226 232 241 254 297 309 278 237 234 223 209 202 204 207 209 213 208 198 211 207 185 202 217
329 330 331 332 334 334 333 331 328 330 336 336 327 311 327 326 314 330 329 313 307 308 307 307 307 306 304 299 293 297 306 312 321 330 316 316 48 346 310 326 334 326 319 305 301 309 316 331 350 349 336 319 312 293 193 53 359 335 322 323 321 279 234 236 229 228 236 237 247 276 277 265 265 244 220 207 204 206 207 211 210 203 213 217 184 190 210
323 325 326 327 329 329 330 330 325 326 332 333 323 312 322 323 319 325 317 306 303 302 302 303 302 301 294 283 294 314 305 308 324 326 313 314 336 332 313 317 325 319 307 295 292 300 311 315 321 322 316 313 316 330 2 3 347 333 327 343 330 276 237 312 265 239 237 229 222 247 266 262 259 262 250 223 209 205 204 207 208 205 207 210 194 185 200
318 320 321 322 324 325 327 327 323 323 328 328 320 311 314 314 315 313 302 301 304 302 303 300 294 295 291 290 320 324 305 310 320 312 310 315 311 309 310 311 314 303 285 279 287 293 298 298 297 298 297 299 302 311 327 326 325 327 327 338 321 284 292 312 252 241 237 224 215 224 241 257 264 254 243 231 218 208 203 203 206 207 205 204 203 197 188
315 316 318 320 321 323 325 324 319 317 316 308 296 303 315 317 314 309 297 291 296 299 302 297 292 299 300 292 301 304 301 307 311 305 308 298 280 279 291 298 301 294 286 288 291 289 288 287 289 287 282 282 283 283 287 290 295 307 312 315 313 301 310 262 220 226 231 220 214 220 229 242 250 234 218 219 225 217 208 206 212 214 211 206 204 200 188
313 313 315 318 318 319 320 318 315 312 304 293 282 285 296 302 305 309 300 281 285 299 304 299 300 304 301 296 294 297 300 302 304 305 301 294 292 292 292 292 290 285 294 307 305 291 284 280 278 272 267 268 271 273 276 275 276 284 293 298 303 304 301 277 233 227 220 204 198 215 225 225 224 217 218 223 223 222 220 216 215 215 217 224 224 213 203
312 313 314 315 314 314 313 310 309 306 298 291 285 277 277 282 286 293 289 277 284 297 299 300 306 303 298 297 296 296 298 299 300 299 294 294 297 297 294 292 289 292 307 309 298 291 286 280 272 264 259 257 254 257 262 264 265 270 269 271 286 296 279 263 256 244 216 169 160 207 225 233 228 216 230 236 228 226 230 231 230 225 221 225 231 232 227
311 312 312 311 311 310 309 307 305 301 295 290 283 275 272 275 273 263 269 276 278 283 293 301 304 301 298 300 300 299 299 298 294 289 287 289 290 290 294 294 294 304 313 304 297 294 290 281 273 265 258 250 242 240 244 246 249 253 252 253 264 275 264 245 241 256 242 187 184 206 226 254 222 197 211 261 236 223 224 229 230 230 228 228 228 229 228
309 309 309 309 310 309 307 307 304 298 292 285 277 275 272 267 258 241 229 262 266 276 293 301 302 303 305 305 304 304 303 298 294 288 286 289 289 290 297 297 297 307 307 301 300 296 289 285 283 274 254 239 232 229 229 230 232 236 238 238 242 250 262 254 232 235 248 226 206 198 158 160 198 188 185 229 226 220 225 229 223 220 229 238 234 232 238
308 308 309 308 309 309 307 307 304 297 292 284 276 274 268 262 259 250 221 233 271 282 275 271 293 311 311 306 303 304 305 300 299 297 288 281 286 293 297 297 300 304 304 300 300 293 284 285 286 277 237 212 218 220 219 217 216 220 223 225 225 230 242 250 239 228 228 227 220 210 204 209 202 185 180 194 218 217 219 231 225 210 206 205 222 249 267
307 308 309 309 309 310 309 308 304 300 297 291 282 272 262 257 258 252 234 214 250 268 252 262 303 313 304 299 298 294 298 306 311 311 298 285 297 301 300 306 303 298 296 291 287 285 278 268 268 269 254 235 239 221 204 204 200 199 204 207 207 214 228 240 243 233 220 219 223 220 220 223 197 171 173 176 165 147 179 207 212 187 144 123 232 249 253
308 309 309 310 311 312 311 309 307 305 303 296 288 277 264 253 245 237 229 215 227 244 266 286 305 310 295 291 296 291 299 309 301 301 302 302 312 308 307 313 301 293 298 294 276 269 269 263 267 276 276 284 279 250 207 208 202 184 186 194 198 201 210 220 226 226 219 220 224 220 219 233 67 129 162 167 162 167 192 199 181 105 77 81 255 262 262
310 310 311 311 312 313 313 311 309 308 305 299 294 287 276 264 244 228 218 223 235 242 258 255 256 269 279 289 296 295 302 303 290 293 297 294 306 316 312 310 299 297 345 322 286 276 272 269 282 298 289 273 275 272 247 239 233 186 177 185 189 193 200 209 218 223 222 222 225 223 217 195 105 137 135 118 154 191 198 194 119 42 48 61 27 359 10
310 311 312 313 314 314 313 312 310 309 306 303 300 294 287 279 250 227 214 215 233 239 251 241 235 250 271 282 285 284 285 286 285 294 291 289 335 324 301 302 322 332 351 302 287 281 262 255 263 284 281 276 288 294 287 272 279 215 191 196 193 190 194 202 213 222 221 217 221 225 221 239 39 142 144 125 174 198 202 331 311 299 355 30 5 356 13
311 311 312 314 315 314 313 312 311 309 306 304 303 298 291 283 257 229 219 220 234 244 252 248 246 255 264 267 271 275 278 276 273 278 279 291 342 324 295 295 8 312 263 257 296 291 273 287 323 293 282 312 353 319 287 255 239 231 226 225 216 204 202 203 204 212 222 220 220 220 215 31 22 17 132 84 59 350 346 339 314 291 333 359 350 5 20
311 312 313 314 315 315 314 312 311 310 308 305 305 304 295 278 253 229 221 220 223 248 254 243 240 247 253 255 260 267 272 273 274 280 282 288 309 308 297 313 319 294 292 318 302 292 303 324 324 308 305 314 293 281 289 268 242 222 222 233 243 239 230 218 201 196 211 215 212 218 258 15 14 7 37 41 31 16 353 346 343 345 352 351 345 358 10
312 313 314 315 316 315 314 313 312 310 310 310 309 307 297 272 250 235 223 218 220 240 256 254 249 251 255 259 261 263 266 268 270 273 275 281 282 273 278 294 291 284 316 317 296 303 338 322 307 314 321 306 279 274 285 275 256 209 206 218 226 229 268 274 257 256 263 252 262 324 342 349 355 9 29 20 4 360 3 357 349 351 357 357 349 343 348
314 315 316 316 316 316 315 315 315 311 310 313 311 305 296 281 255 232 219 216 224 242 252 258 266 268 265 261 259 259 258 257 258 257 253 259 273 269 262 274 283 282 289 298 303 318 322 308 310 319 314 304 301 299 289 277 268 255 237 231 217 177 288 287 274 280 293 284 270 275 296 308 304 325 353 350 341 347 0 356 350 349 348 349 349 345 341
315 315 316 316 316 317 316 315 314 313 312 311 308 298 291 287 265 224 211 213 228 248 250 246 248 259 267 266 262 257 250 243 242 243 239 239 251 266 258 261 284 285 273 285 310 309 299 296 300 297 292 301 306 295 283 277 280 290 273 247 226 218 241 258 257 257 274 276 261 260 285 307 310 314 315 310 320 347 354 346 341 342 340 340 343 341 336
316 315 316 317 317 318 318 316 314 314 312 308 304 294 284 282 255 207 199 210 228 236 252 257 249 254 267 273 271 263 251 236 226 225 227 228 235 251 272 295 301 286 282 298 293 278 280 286 286 282 286 299 300 286 286 287 291 302 294 268 252 237 235 249 254 248 245 256 271 285 298 300 296 292 286 284 310 353 352 339 329 326 331 337 336 332 330
317 316 317 319 319 318 317 316 314 312 308 304 298 284 275 275 238 199 198 212 229 214 246 274 275 268 267 269 264 254 247 242 231 226 230 232 235 246 261 276 280 274 276 281 275 272 279 280 277 279 282 289 291 286 288 290 287 283 276 266 265 262 243 244 254 254 248 250 260 272 283 285 278 272 278 293 327 348 341 333 325 318 322 330 330 327 326
316 317 319 320 320 319 317 315 314 310 305 303 294 272 260 256 228 204 200 201 198 210 245 262 287 300 286 275 264 247 238 243 244 241 241 242 240 244 251 259 265 268 270 269 266 267 267 265 268 274 276 286 296 288 283 285 283 276 268 261 254 246 244 246 250 251 247 243 245 254 268 275 271 274 295 317 331 332 327 324 319 314 315 319 320 319 315
318 319 321 321 320 319 317 315 313 308 303 300 286 257 245 240 228 215 208 206 213 252 288 290 302 307 296 279 258 238 234 238 240 240 242 242 240 240 242 248 256 261 265 269 271 266 261 263 271 277 281 295 296 281 277 280 275 268 264 258 249 245 248 250 251 253 254 254 256 261 275 284 286 293 301 303 303 305 306 305 305 307 305 300 303 310 309
321 320 321 323 321 319 318 317 313 305 296 284 202 200 211 218 224 222 214 211 218 248 294 297 292 299 310 306 256 232 236 237 236 237 237 236 236 236 237 243 251 256 265 272 274 272 272 277 280 279 288 306 301 287 285 280 266 262 266 265 260 255 252 253 258 265 271 275 276 277 277 275 278 283 285 287 292 293 291 291 293 296 295 289 289 301 305
323 322 324 325 324 323 325 324 318 305 144 145 164 189 176 161 199 225 218 209 207 217 270 292 287 305 319 312 287 258 253 246 243 243 242 239 237 235 234 237 242 248 258 262 265 272 277 280 282 282 288 295 290 283 285 282 274 274 277 277 275 269 261 256 256 259 265 271 275 277 274 271 273 276 277 278 280 279 278 282 283 283 286 289 290 293 295
324 326 328 328 329 336 347 355 75 117 127 157 209 238 23 81 88 190 211 201 201 211 246 277 280 296 306 291 277 292 285 267 257 252 248 247 245 238 235 235 234 235 241 247 256 266 271 274 280 285 290 294 288 274 274 279 281 280 279 281 283 281 274 266 259 257 261 265 267 265 263 262 261 263 265 267 268 265 263 263 266 270 276 279 279 281 285
330 332 332 333 344 11 32 65 99 107 111 101 45 46 39 46 59 85 179 179 188 215 260 285 281 286 301 305 327 334 317 289 272 263 252 246 245 240 233 231 229 229 235 248 259 260 259 265 269 274 283 297 294 273 267 267 264 266 273 281 286 284 277 270 264 261 260 261 264 264 261 258 256 256 260 263 263 260 258 256 258 265 272 272 267 267 274
335 335 333 352 57 60 64 79 91 97 105 92 73 63 39 25 61 125 163 159 163 224 268 292 288 289 320 336 345 356 343 312 284 275 260 247 247 249 236 229 234 232 226 230 243 252 259 267 271 274 281 290 285 269 264 260 258 262 270 275 274 271 270 267 266 264 260 257 255 255 256 259 261 262 264 264 259 256 256 257 258 259 263 265 260 255 259
338 339 351 101 94 74 67 72 82 94 104 93 80 63 22 9 122 139 150 148 136 273 272 292 292 297 315 310 313 25 2 334 316 332 337 287 225 272 252 229 237 233 215 213 234 259 271 281 284 281 280 281 274 269 264 261 264 271 277 279 276 274 270 266 262 259 258 256 252 250 253 258 262 263 264 263 259 252 244 241 248 253 252 251 249 244 242
344 353 110 127 108 89 81 69 56 75 70 54 59 55 33 144 139 135 138 145 317 290 265 289 292 302 318 317 335 35 13 337 318 323 336 21 103 243 262 161 219 228 210 209 248 258 264 286 299 284 279 266 249 247 256 273 280 282 282 279 277 275 269 264 260 257 254 252 250 250 252 253 253 254 254 253 252 249 242 238 243 250 249 242 234 228 228
357 48 142 143 128 118 117 45 2 356 29 38 39 65 116 129 134 147 186 266 336 315 302 318 303 295 311 321 331 353 345 323 316 312 303 307 23 142 153 199 235 221 192 207 254 259 264 297 302 278 271 254 249 255 269 279 281 280 276 273 273 268 259 254 255 255 253 248 246 247 249 250 251 254 251 247 244 243 241 239 237 240 240 234 223 220 226
45 100 141 154 172 214 158 63 39 31 53 72 100 115 117 121 132 164 207 239 284 261 265 319 297 279 294 306 310 328 335 327 332 350 330 322 359 101 139 222 273 295 239 243 256 262 257 248 255 265 261 249 264 279 286 284 282 282 283 284 284 273 256 250 251 252 252 251 248 246 246 246 248 251 247 241 237 236 235 231 229 233 229 212 195 204 215
84 117 179 199 224 317 42 39 31 62 148 171 166 139 149 183 201 178 182 201 204 193 194 229 255 257 272 286 307 338 343 325 331 1 17 359 16 104 133 73 359 320 292 271 248 255 261 248 232 247 262 270 285 303 315 318 318 322 320 313 308 285 254 242 240 240 243 245 242 238 238 241 243 241 236 231 228 229 230 224 221 225 219 192 177 193 204
119 213 226 254 18 39 21 351 329 167 165 198 224 219 197 213 265 357 119 189 191 183 199 234 243 230 245 277 314 353 332 310 339 1 15 29 34 45 41 32 28 312 315 317 248 221 300 294 254 253 294 312 323 333 340 342 345 348 347 344 349 356 339 257 239 232 231 237 240 238 238 238 234 227 221 220 221 222 222 220 217 215 206 183 178 190 194
253 255 301 33 44 57 35 349 314 177 188 220 232 235 241 20 357 348 346 9 37 78 208 288 270 202 215 254 306 359 208 285 339 346 357 30 30 335 7 21 356 324 352 2 20 21 337 325 331 346 347 344 343 344 347 351 356 1 2 0 5 15 24 26 15 252 228 233 244 248 245 237 227 216 211 215 218 214 209 211 212 204 190 179 181 184 179
355 354 20 36 35 56 149 243 215 213 237 272 273 322 358 23 35 347 351 11 20 28 7 302 322 146 187 220 260 284 202 204 281 300 336 39 42 332 23 24 319 345 19 10 358 357 348 341 357 2 354 348 345 347 352 359 4 5 6 7 12 17 21 24 27 28 33 52 183 235 218 205 208 214 212 210 210 204 197 206 210 198 184 178 175 166 156
21 33 62 126 233 224 203 208 237 242 298 350 9 2 2 18 27 12 17 25 12 354 339 335 348 7 64 199 235 288 92 146 235 267 319 58 47 7 30 31 14 33 30 5 348 6 11 4 7 1 348 342 345 352 360 6 8 8 8 9 14 20 21 22 26 31 33 39 44 43 51 72 81 76 99 115 111 94 77 62 18 227 198 179 164 150 142
22 25 52 204 226 237 265 351 358 6 5 3 2 358 2 13 18 19 32 42 349 348 356 341 335 343 264 193 215 184 117 148 248 280 2 56 41 14 47 45 27 25 20 349 2 24 24 12 5 356 344 342 348 355 2 6 9 13 14 13 15 21 22 21 27 34 35 37 41 42 44 50 52 49 52 60 72 79 72 55 37 36 108 123 120 115 111
351 351 347 286 305 338 354 350 352 12 23 17 7 2 3 8 14 21 21 354 334 12 22 355 339 356 20 16 344 42 102 150 212 276 32 48 40 27 43 45 33 20 12 15 27 32 26 12 0 352 349 352 353 351 354 358 2 10 16 16 17 20 21 21 25 31 33 33 36 40 45 50 50 49 48 49 52 63 65 52 40 53 74 84 87 88 92
322 356 12 12 356 356 6 353 349 12 25 20 13 11 9 5 7 12 8 342 343 32 35 11 348 357 7 360 357 17 24 36 77 41 26 38 47 42 39 42 40 37 38 39 36 32 23 11 360 355 360 5 2 356 355 356 358 5 14 16 16 18 19 20 24 27 28 27 27 33 40 45 47 49 48 43 42 50 56 48 42 58 71 71 67 68 76
21 9 3 6 6 22 47 37 17 25 31 23 14 17 18 13 11 11 3 345 347 27 41 26 4 2 3 360 13 29 19 20 35 28 14 33 53 49 39 39 40 38 40 42 40 32 22 12 4 2 6 9 9 9 9 7 6 10 16 18 17 16 17 21 26 27 25 24 26 31 38 40 38 40 45 45 44 47 49 44 44 57 66 64 55 55 64
41 347 336 12 24 36 49 46 35 33 31 23 19 20 19 15 18 21 10 349 340 350 14 13 2 16 15 1 6 28 32 32 35 30 25 41 53 49 42 44 43 40 39 40 39 35 26 19 16 13 12 11 14 17 18 19 21 23 23 24 21 17 16 20 25 28 29 29 29 31 34 34 30 29 36 41 43 45 46 45 47 53 59 60 57 56 59
17 329 354 31 38 36 37 36 38 38 30 20 18 18 15 14 18 17 6 349 339 342 348 337 319 322 360 7 14 25 26 29 39 41 38 43 49 47 41 40 40 40 38 32 28 29 28 24 21 19 18 17 18 19 20 23 27 29 30 30 28 26 24 22 21 24 30 35 36 35 36 34 31 32 36 39 40 41 43 45 46 48 51 54 55 53 54
16 351 13 37 51 47 32 23 26 35 33 23 15 11 9 12 16 10 358 350 349 354 357 350 339 341 350 2 24 34 27 21 29 40 42 43 45 44 37 31 29 29 28 23 19 23 25 22 21 22 22 20 19 20 23 24 25 28 32 32 31 32 36 35 29 29 31 33 35 37 38 38 37 37 39 43 46 46 46 46 47 47 49 51 52 52 51
29 20 22 26 34 37 29 19 21 26 25 20 17 11 4 6 9 6 358 353 349 350 2 15 13 9 7 6 21 37 36 28 30 41 45 46 44 44 41 34 26 17 15 18 23 25 21 18 19 23 22 19 17 18 21 24 25 27 30 32 31 33 36 38 39 39 37 35 36 37 37 36 37 37 39 47 55 54 50 48 48 49 49 50 51 52 51
38 49 41 30 27 29 24 21 24 23 17 16 16 9 3 4 4 357 352 351 352 357 11 19 17 17 21 20 17 21 27 31 38 45 47 40 33 29 29 27 23 17 16 20 23 22 19 16 17 20 21 21 19 16 16 20 24 27 28 30 32 33 33 35 38 41 41 39 39 38 35 33 35 38 42 48 53 53 51 49 51 53 53 52 51 51 51
23 50 50 40 35 31 22 18 22 20 15 17 16 5 2 8 4 349 344 352 5 11 12 14 16 22 25 21 12 10 16 26 34 39 40 37 34 23 2 353 357 6 13 14 14 17 19 16 14 14 17 19 20 20 19 19 20 23 25 28 31 33 34 35 36 37 38 38 38 36 34 33 36 40 43 45 46 48 49 49 51 56 59 58 56 56 56